sat.trackr.live / text

‹ back to catalog

STARLINK-1274

NORAD 45387 · 2020-019AD

PAYLOAD ACTIVE UNKNOWN

§ Identity

Operator
Country
US
Launch date
2020-03-18
Launch site
AFETR
Launch vehicle
Mass (kg)
RCS (m²)

Purposes: comms

External: N2YO · Heavens-Above · Gunter

§ Orbital elements

Epoch: 2026-05-25T02:18:03.968064Z

Period
92.37 min
Inclination
53.0208°
Eccentricity
0.0009023
Mean motion
15.58987120 rev/d
Perigee alt
384.5 km
Apogee alt
396.7 km
Semi-major
6,768.7 km
B*
1.0214e-3
RAAN
94.2602°
Arg perigee
75.8495°
Mean anomaly
284.3519°
Rev number
34,249

§ Raw data

STARLINK-12741 45387U 20019AD  26145.09587926  .00081346  00000+0  10214-2 0  99942 45387  53.0208  94.2602 0009023  75.8495 284.3519 15.58987120342492

JSON: /api/v1/satellites/45387 · /tle

For live sub-satellite position, see the globe view (requires WebGL).

§ Visibility from observer

Set your observer location to see the next 7 days of passes ≥ 10°. The values pass through the URL so the page stays shareable.

No JS? Fill the form by hand. The geolocation button needs JavaScript.